Theta_e
316 308 307 307 296 294 290 293 293 295 299 301 309 310 308 312 307 299 325 335 337 338 345 346 348 350 351 351 350 349 347 346 346 346 345 344 343 342 341 341 341 340 338 339 338 337 335 334 333
310 309 308 300 293 288 288 294 294 296 301 314 309 310 309 307 320 322 326 335 338 342 344 344 345 349 350 350 350 348 347 346 346 345 345 344 343 342 341 342 342 340 339 337 336 334 336 334 334
304 308 303 297 290 288 289 293 293 299 300 301 308 313 311 312 319 324 328 336 339 341 343 343 344 348 349 349 349 349 349 348 346 345 344 343 342 341 341 343 343 341 336 335 334 339 337 335 336
305 303 298 293 290 293 292 295 297 298 299 303 308 305 314 318 322 328 335 338 338 339 342 341 345 348 348 348 348 348 347 347 346 345 343 342 342 340 340 341 343 340 340 333 333 335 339 336 335
303 296 289 287 288 294 294 296 298 297 298 298 302 304 309 315 326 330 335 337 336 336 339 340 343 346 347 348 347 347 347 346 345 344 342 341 340 340 338 336 336 335 336 335 335 336 340 337 335
296 294 286 283 285 292 293 296 297 298 298 300 303 307 310 309 323 327 334 334 337 336 338 340 336 340 343 345 345 345 345 344 344 343 342 342 341 340 339 337 335 334 335 335 335 337 340 339 337
295 290 285 284 287 290 293 295 297 298 297 298 305 303 306 304 318 324 330 332 335 336 336 337 338 337 334 339 340 341 342 342 342 342 342 340 339 340 341 340 339 335 335 335 337 338 339 338 337
295 291 287 287 288 290 295 294 296 296 297 298 304 299 300 305 309 326 326 328 331 334 334 334 336 337 337 338 333 335 337 338 338 338 336 334 333 334 334 333 335 337 338 338 338 337 338 336 335
298 291 287 290 289 290 293 291 294 294 294 295 299 303 305 305 310 321 322 323 327 332 332 333 335 338 340 339 335 330 332 333 333 333 330 329 331 331 330 328 331 335 335 336 337 337 336 335 332
294 289 290 292 290 289 292 291 291 292 291 292 293 296 301 302 303 317 319 321 322 325 329 332 333 339 339 339 337 333 336 334 334 333 333 333 332 332 331 326 326 330 330 332 334 335 333 329 326
292 290 290 292 292 292 291 291 291 288 289 293 293 292 299 299 300 313 315 320 322 322 322 328 330 329 334 335 336 336 336 333 333 333 332 331 332 330 330 330 329 328 323 326 327 327 329 328 326
289 293 293 295 294 292 290 292 291 290 292 292 292 292 298 300 300 304 309 315 315 313 313 312 314 319 316 318 318 316 323 318 321 318 327 331 329 329 330 328 327 327 328 325 325 325 325 325 327
289 290 291 292 292 291 291 290 289 290 293 293 293 293 291 298 299 299 302 300 305 305 303 299 300 303 303 303 302 301 301 301 303 305 305 309 321 325 327 327 328 328 325 325 325 324 323 322 324
289 289 289 289 289 289 288 287 287 289 289 290 290 291 291 291 296 296 296 296 296 299 295 295 295 297 299 298 297 296 297 297 298 298 299 301 302 307 315 321 322 321 319 319 319 320 321 323 324
289 286 286 285 287 286 285 286 285 289 290 289 289 289 289 290 292 296 295 294 294 293 293 294 294 295 295 295 296 296 296 297 297 297 298 299 301 301 301 305 310 314 317 317 317 316 317 317 320
284 283 281 284 285 286 284 284 288 287 287 287 288 288 288 288 290 290 291 291 292 292 293 294 297 294 294 294 295 295 296 295 296 296 297 299 300 300 300 301 302 306 310 313 314 315 315 316 315
281 279 280 283 285 284 283 283 286 286 288 288 288 288 288 288 287 289 290 290 291 292 293 293 294 294 294 294 294 294 295 295 296 296 297 299 301 302 300 300 301 303 305 307 310 312 315 315 315
280 279 280 280 282 283 281 283 287 287 287 287 286 286 286 287 288 288 290 290 290 291 292 293 293 292 291 291 291 292 293 293 294 293 295 296 297 298 297 297 298 300 301 302 305 308 310 313 312
283 281 280 280 283 281 281 282 286 286 286 285 285 284 285 286 286 287 288 289 290 291 292 291 290 289 289 289 289 289 290 291 292 293 294 295 296 297 296 295 296 296 297 298 301 303 305 306 308
281 280 279 281 283 281 280 281 286 285 284 283 283 284 284 285 285 286 287 288 289 290 289 288 289 289 289 289 289 290 289 290 291 292 294 295 296 296 296 295 295 295 295 295 296 298 299 302 305
280 280 279 280 281 280 279 281 283 284 285 284 284 284 285 284 285 286 287 287 287 287 287 289 290 290 289 290 290 290 289 290 290 292 292 294 295 296 295 295 294 294 295 294 295 296 296 295 298
279 281 281 281 277 273 279 275 280 282 283 283 283 282 284 285 286 287 287 286 286 286 287 289 290 290 290 290 290 289 288 288 289 291 292 293 294 294 295 295 294 294 294 294 294 296 295 295 294
280 281 281 280 274 271 274 271 279 280 280 282 281 283 283 285 286 287 287 287 287 287 287 288 288 289 290 291 291 290 290 290 290 290 290 291 292 293 293 293 293 292 293 293 293 292 293 294 293
283 281 281 279 274 267 272 274 277 279 280 280 282 282 284 285 286 287 287 288 287 287 287 287 288 289 292 291 290 289 289 288 289 289 289 290 290 290 291 291 291 291 291 291 291 291 292 292 292
281 278 267 269 267 271 274 270 278 281 280 281 283 283 283 285 286 286 287 287 288 288 288 288 289 291 290 290 290 289 289 288 288 288 288 288 288 289 289 289 289 289 290 290 291 291 291 291 290
279 278 273 267 269 272 274 270 279 281 281 283 284 284 285 284 285 285 286 288 288 288 287 288 291 290 289 289 289 289 289 288 288 288 288 288 290 290 291 289 289 289 290 290 290 290 291 291 292
278 276 280 269 261 268 272 277 281 281 281 282 284 286 287 286 285 285 286 287 288 287 287 291 291 290 289 289 289 288 288 288 288 287 288 289 290 290 290 289 288 288 289 289 289 289 291 291 291
280 282 277 276 269 266 271 271 277 278 279 282 285 286 287 287 285 286 287 287 286 285 288 290 289 288 288 288 288 289 289 289 289 288 288 289 289 289 289 289 289 289 290 291 291 291 291 291 291
278 278 279 281 280 272 269 275 281 280 281 282 285 286 286 285 285 286 286 285 285 284 287 287 287 287 287 288 288 288 288 288 288 287 287 289 289 289 289 289 289 289 290 291 291 291 291 291 291
280 279 280 278 275 275 275 275 283 282 283 285 285 286 286 285 285 285 285 284 284 284 284 284 285 286 286 287 287 287 289 290 289 289 288 288 289 289 289 289 289 289 290 291 291 290 291 290 290
Wind_Speed
7 6 2 5 5 5 3 5 2 2 1 2 1 3 3 2 3 4 3 7 7 13 9 10 12 13 11 12 11 10 10 10 10 10 9 8 7 6 5 5 5 4 3 4 6 7 6 5 2
4 3 5 3 5 3 5 3 4 3 2 5 3 2 3 1 0 2 4 6 8 12 9 7 11 12 10 11 10 10 9 9 9 8 8 7 5 5 3 5 7 6 4 3 3 3 7 8 4
2 3 4 5 3 5 5 4 4 1 3 2 2 3 2 1 1 5 2 9 8 8 8 8 11 12 11 9 9 9 9 8 8 6 5 5 4 3 4 6 7 6 4 2 4 7 9 9 6
2 5 5 5 5 6 5 2 2 1 1 2 2 2 2 0 2 3 6 9 10 7 7 10 12 11 11 10 9 8 7 8 7 6 5 3 2 1 3 6 4 2 4 2 3 7 7 8 3
4 3 4 0 4 5 5 4 3 1 1 1 1 2 2 2 2 6 7 8 10 7 6 8 12 11 11 11 10 8 8 7 6 6 5 4 3 3 2 2 3 2 3 4 5 7 9 9 9
5 4 4 3 5 5 5 3 2 2 1 1 2 4 4 3 3 5 7 7 6 9 7 7 9 9 9 10 10 9 8 8 7 6 5 4 4 4 4 4 2 2 4 6 7 8 11 10 11
6 4 4 2 4 5 4 1 2 3 1 3 5 5 3 3 4 6 7 6 6 6 6 6 6 7 7 8 9 9 9 8 8 7 6 5 5 5 5 5 5 5 5 6 6 6 9 5 9
5 5 3 4 3 6 0 2 1 3 4 1 5 5 4 5 5 6 5 5 6 6 6 6 6 6 6 6 9 9 9 8 8 8 7 7 7 6 6 7 6 7 6 6 6 6 6 5 8
3 4 3 4 7 3 3 1 0 2 2 2 4 4 2 2 6 6 5 3 4 3 4 5 6 7 6 5 6 8 9 9 9 8 9 6 4 5 6 6 6 8 8 8 7 7 7 7 7
4 3 7 3 3 1 2 1 4 4 3 3 3 3 2 4 4 7 6 6 4 5 4 5 5 6 5 4 5 5 4 3 2 2 1 2 3 3 4 5 7 8 8 10 10 9 8 6 3
3 5 2 2 2 0 1 3 1 1 4 9 6 4 3 4 6 7 6 6 7 5 3 5 4 4 4 3 1 1 1 1 1 0 1 2 2 2 3 2 3 3 4 3 4 4 3 5 4
2 4 3 3 2 2 2 5 6 7 8 2 3 4 3 7 8 8 7 6 6 5 5 4 3 3 6 4 3 3 3 3 3 3 4 2 1 3 2 2 3 3 2 4 4 3 5 5 5
3 2 2 3 4 4 3 7 6 10 12 9 7 6 4 6 6 4 4 2 4 5 5 4 3 4 5 5 3 3 3 3 3 4 4 3 3 3 3 3 4 4 2 3 4 4 4 5 6
0 3 6 5 2 3 3 4 1 5 1 3 2 7 9 7 8 3 5 6 6 5 6 4 4 4 5 4 4 3 3 2 3 3 3 3 2 2 3 4 5 3 3 3 4 4 4 5 6
1 6 6 1 1 3 1 8 10 6 5 7 6 5 5 8 8 9 7 8 7 4 5 5 5 5 6 5 4 3 3 4 4 4 5 5 4 4 4 4 4 4 3 5 4 4 4 4 4
3 3 4 1 2 1 2 10 4 2 3 6 6 5 6 6 7 7 6 6 7 6 7 5 5 6 6 5 4 3 4 4 4 4 4 6 6 5 5 4 4 4 4 3 3 4 5 5 5
4 4 5 6 3 2 2 9 4 3 8 10 9 8 8 7 5 4 7 7 7 7 8 7 6 6 6 5 4 4 5 5 4 4 4 6 6 6 4 4 4 5 4 4 3 4 6 8 7
5 4 4 5 3 1 2 15 12 5 7 10 9 8 8 8 10 5 6 7 8 8 8 8 6 7 5 4 4 4 4 3 3 3 3 5 4 6 5 4 5 5 4 4 3 4 4 6 6
4 3 3 2 1 2 4 10 20 6 7 8 7 8 8 6 3 5 6 8 8 7 8 6 8 5 4 4 3 3 2 2 2 4 5 5 5 5 5 4 5 4 4 5 5 4 5 4 3
3 2 5 3 2 0 4 12 17 5 2 3 6 8 8 3 5 6 7 7 6 7 7 7 7 5 4 3 2 1 0 2 2 2 4 5 6 5 5 5 5 5 4 5 5 4 4 3 3
3 5 4 5 1 2 6 8 4 1 2 5 6 3 5 5 6 6 7 7 8 8 8 7 6 6 5 4 3 3 2 2 3 2 3 3 6 6 6 5 5 5 3 4 5 5 5 6 2
4 4 3 3 4 4 3 6 5 2 5 5 6 6 6 7 6 6 6 6 6 5 5 6 6 6 5 5 4 3 1 3 2 3 4 6 5 6 6 6 5 5 4 4 4 4 3 3 5
3 4 5 3 5 4 4 4 9 2 1 3 3 4 5 6 7 8 7 6 5 6 5 5 5 6 4 5 5 4 4 3 4 4 7 8 6 5 6 6 6 5 4 4 5 5 5 3 4
8 6 6 4 4 3 5 5 6 3 3 2 2 3 5 7 6 6 6 6 5 4 4 4 4 4 6 5 5 5 5 6 7 8 7 7 6 6 5 6 4 5 5 5 5 5 6 5 6
3 6 3 4 3 7 1 3 9 4 2 5 7 6 5 6 7 6 7 6 5 5 4 3 5 3 4 5 5 5 5 6 6 7 6 8 7 6 5 5 5 6 6 6 6 6 7 7 6
6 6 7 8 4 4 4 7 5 3 2 3 5 6 5 5 2 4 4 4 4 5 3 2 3 3 5 5 5 4 5 3 4 5 6 6 7 8 10 7 7 8 8 8 7 6 7 8 8
5 6 3 9 1 3 3 5 7 2 4 4 7 7 7 6 4 4 4 4 3 2 1 2 1 2 2 3 4 5 5 5 4 6 6 6 9 8 10 12 11 10 10 10 9 8 10 10 10
3 3 3 2 3 3 4 5 5 7 8 6 5 6 5 4 4 2 3 2 1 1 2 3 1 2 3 3 4 4 5 5 5 5 8 9 9 9 10 10 11 11 11 11 11 10 11 12 10
3 3 2 1 2 5 1 7 5 11 10 11 7 5 6 4 1 0 0 2 1 1 1 2 3 3 4 4 5 6 6 6 7 6 7 10 10 9 9 10 11 12 12 12 11 12 13 14 14
1 6 6 5 5 3 2 8 5 9 10 9 7 6 5 4 4 2 1 2 3 4 3 4 3 4 4 4 5 6 7 7 8 7 9 9 10 10 11 11 11 12 12 12 12 13 13 14 14
Wind_Direction
344 329 61 39 55 64 261 259 251 266 143 266 47 140 168 57 162 202 320 173 131 149 159 160 158 161 167 158 154 151 146 143 142 141 141 139 137 137 143 156 165 167 174 184 157 131 131 123 93
342 343 44 77 90 75 266 255 233 215 154 127 79 80 53 154 209 104 104 184 153 151 151 153 156 159 164 163 155 160 158 158 155 152 152 155 159 165 189 206 204 202 202 86 158 174 161 147 161
320 23 84 96 114 185 218 227 245 199 152 203 99 57 134 182 326 185 243 145 135 148 151 153 160 157 162 152 158 169 177 166 166 165 170 184 182 205 251 276 244 221 134 57 347 336 165 159 196
82 17 34 96 215 251 212 290 207 257 108 76 119 74 304 188 198 205 128 130 137 141 151 156 162 164 162 159 161 169 168 172 174 172 182 206 217 280 303 311 278 201 190 184 311 324 198 145 102
39 56 73 66 248 262 249 247 182 240 293 107 83 237 243 317 318 139 143 141 145 142 144 159 165 172 166 164 166 167 171 171 171 176 189 204 213 213 270 353 45 21 332 314 313 309 307 167 175
54 99 79 226 241 252 270 229 185 188 208 151 97 141 250 296 171 164 152 154 148 151 149 159 166 168 168 170 169 172 181 185 186 187 196 206 207 218 238 256 270 281 289 296 304 310 319 218 185
115 95 198 204 256 292 226 126 213 188 181 232 136 158 274 271 195 157 164 144 140 139 142 149 157 173 177 182 183 186 190 194 195 197 205 215 219 227 227 237 253 262 266 277 290 300 313 235 199
103 95 144 231 211 261 269 331 121 159 239 151 168 218 248 233 160 114 112 136 144 148 152 156 155 174 185 193 201 197 198 198 206 206 212 219 219 227 230 237 247 256 264 263 266 277 290 262 215
132 65 220 239 167 253 3 1 44 324 293 327 201 178 267 170 119 109 104 98 118 144 161 159 168 192 188 191 191 207 213 205 214 214 216 220 225 231 235 236 232 249 260 265 259 257 259 258 252
100 132 225 230 212 268 334 8 329 353 4 273 282 257 22 144 164 155 163 157 157 170 176 178 188 197 189 202 185 207 216 230 257 264 260 251 246 231 239 242 244 247 252 259 262 256 249 248 238
149 206 221 289 268 155 302 291 322 233 258 235 235 242 191 182 183 177 185 180 178 158 153 178 194 292 185 183 71 137 44 63 64 285 314 292 276 249 248 246 248 252 258 254 260 271 248 230 219
217 247 236 296 4 13 296 325 295 201 230 215 248 260 193 190 196 197 191 184 163 160 162 151 141 127 80 70 69 66 77 60 61 35 26 358 321 291 264 251 259 255 262 266 244 244 249 242 223
198 303 308 314 311 268 308 249 248 263 253 267 276 284 270 217 217 225 209 186 166 169 155 145 124 113 104 95 88 78 63 47 26 23 10 11 344 307 311 284 276 269 260 246 254 252 251 249 244
350 275 271 272 197 261 245 267 83 260 121 353 270 263 252 237 224 200 187 197 185 167 166 151 119 98 99 93 84 74 61 46 43 22 8 4 346 303 278 284 280 267 253 259 248 248 250 248 241
309 312 318 206 169 205 77 290 232 256 284 303 290 289 290 241 243 219 206 194 176 168 146 145 118 93 88 88 76 61 44 41 30 7 358 352 350 332 323 309 304 288 277 271 269 268 261 261 251
5 39 342 346 103 231 167 267 257 4 84 336 322 299 287 272 235 232 207 181 162 142 147 128 105 94 83 81 67 57 48 44 30 13 -0 360 352 348 334 325 309 310 305 283 270 273 274 267 263
2 240 214 311 47 321 158 275 283 68 346 296 276 275 268 267 263 222 202 178 162 146 131 112 98 92 90 76 69 57 42 40 21 13 5 358 1 357 349 325 310 325 316 303 281 278 265 272 262
210 227 245 254 347 18 263 272 278 304 316 288 301 292 270 246 235 228 167 145 130 125 120 113 100 88 77 66 51 46 46 27 18 11 -0 353 355 355 351 335 328 339 330 315 302 269 263 256 259
137 190 243 231 51 331 256 278 283 294 291 308 319 324 306 261 268 133 123 119 111 103 111 111 109 65 67 50 38 33 1 327 339 347 347 350 351 357 342 324 325 325 315 294 296 288 283 284 245
205 181 260 290 50 306 351 283 281 283 303 3 331 347 355 49 70 98 108 102 98 120 111 101 93 80 70 80 90 121 259 277 257 296 325 343 351 341 326 318 302 301 296 294 290 279 290 258 217
210 182 201 208 339 63 326 290 332 7 24 24 19 18 40 72 107 95 99 111 116 122 134 124 99 79 63 48 38 8 351 340 325 338 318 344 324 320 316 306 292 289 271 276 280 278 262 274 266
216 181 130 134 89 228 14 274 294 359 23 30 26 48 65 84 90 101 119 118 129 121 100 90 79 69 60 45 55 51 13 316 291 303 298 315 310 304 303 300 298 288 274 261 257 265 259 268 273
218 103 110 92 88 49 321 73 264 316 33 8 61 93 99 107 126 130 129 129 118 103 91 82 82 67 56 62 57 38 348 284 293 306 312 318 304 285 295 294 295 295 288 281 278 284 279 268 274
147 75 49 59 92 -0 237 141 272 197 216 275 180 167 144 127 120 114 112 114 111 105 106 103 79 60 50 38 21 11 342 322 325 324 317 312 307 295 268 279 285 286 282 274 270 262 254 259 263
95 95 352 359 7 220 131 67 244 288 247 215 190 182 169 156 147 144 141 148 148 140 100 81 63 65 30 22 6 346 324 315 296 294 295 300 307 305 303 285 280 285 280 277 274 265 258 249 240
183 163 165 201 195 234 1 230 245 222 354 124 154 153 144 153 152 134 102 87 83 100 95 81 70 34 12 355 342 333 302 272 270 274 283 295 305 306 305 307 291 289 283 278 276 272 267 262 263
187 206 141 104 59 51 211 271 307 159 93 104 130 134 145 149 146 111 54 78 77 69 81 105 45 306 312 323 306 289 271 266 275 292 282 297 303 300 300 299 294 292 287 281 276 267 261 255 257
189 156 128 347 149 246 282 273 223 184 180 171 127 129 138 133 100 16 -0 51 65 123 193 192 219 283 292 307 319 319 302 293 299 291 293 294 294 295 290 288 293 287 277 274 272 269 265 260 255
155 211 216 117 107 173 232 258 223 182 175 169 170 161 173 162 146 148 34 344 330 274 275 299 291 298 311 332 319 311 302 300 309 298 290 289 291 288 284 287 281 274 274 274 271 267 265 260 258
213 206 168 159 203 227 159 272 317 172 168 159 166 196 213 202 192 192 206 320 345 335 309 287 289 292 300 298 297 303 294 317 299 288 293 289 288 286 285 284 279 277 278 278 275 273 270 266 263